#timestamp,LO_Frequency,Hit,StdDev 
1709740815.1,286046999.2,N
1709740816.0,286046999.2,N
1709740835.8,286046996.5,N
1709740855.6,286046995.2,N
1709740875.5,286046993.3,N
1709740895.3,286046996.1,N
1709740915.2,286046994.0,N
1709740935.9,286046995.2,N
1709740955.7,286046995.7,N
1709740975.6,286046997.0,N
1709740995.4,286046999.4,N
1709741015.2,286046998.2,N
1709741035.1,286046996.5,N
1709741036.0,286046996.5,N
1709741055.8,286046995.2,N
1709741075.7,286046997.3,N
1709741095.5,286046996.7,N
1709741115.3,286046995.5,N
1709741135.2,286046992.1,N
1709741155.0,286046990.7,N
1709741155.9,286046990.7,N
1709741175.8,286046992.2,N
1709741195.6,286046994.1,N
1709741215.4,286046993.4,N
1709741235.3,286047000.0,N
1709741255.1,286046998.5,N
1709741275.8,286046998.6,N
1709741295.7,286046996.2,N
1709741315.5,286046998.9,N
1709741335.4,286047002.2,N
1709741355.2,286047002.8,N
1709741375.0,286046996.5,N
1709741375.9,286046996.5,N
1709741395.8,286046998.9,N
1709741415.6,286046997.3,N
1709741435.4,286046998.7,N
1709741455.3,286047004.2,N
1709741475.1,286047000.8,N
1709741495.9,286046998.5,N
1709741515.7,286046998.1,N
1709741535.5,286047002.7,N
1709741555.4,286047000.7,N
1709741575.2,286047001.3,N
1709741595.0,286047009.2,N
1709741595.9,286047009.2,N
1709741615.8,286047008.9,N
1709741635.6,286047007.1,N
1709741655.5,286047010.0,N
1709741675.3,286047009.8,N
1709741695.1,286047010.1,N
1709741715.9,286047010.8,N
1709741735.7,286047011.2,N
1709741755.5,286047009.2,N
1709741805.4,286047007.5,E
1709741815.3,286047003.7,N
1709741835.2,286047002.5,P
1709741855.9,286047000.2,N
1709741875.7,286046999.8,N
1709741895.6,286046999.0,N
1709741915.4,286047001.1,N
1709741935.3,286047000.3,N
1709741955.1,286047000.4,N
1709741956.0,286047000.4,N
1709741975.8,286047001.0,N
1709741995.7,286046998.6,N
1709742015.5,286047003.3,N
1709742035.4,286047005.8,Y
1709742055.2,286047006.0,P
1709742075.0,286047004.0,N
1709742075.9,286047004.0,N
1709742095.8,286047004.6,N
1709742115.6,286047007.5,Y
1709742135.4,286046998.1,P
1709742155.3,286046997.7,N
1709742175.1,286046999.6,N
1709742195.9,286046997.1,N
1709742215.7,286046999.5,N
1709742235.5,286046998.5,N
1709742255.4,286046999.0,N
1709742275.2,286046998.2,N
1709742295.0,286046997.0,N
1709742296.0,286046997.0,N
1709742315.8,286046999.4,N
1709742335.6,286047000.7,N
1709742355.5,286047002.3,N
1709742375.3,286047000.1,N
1709742395.1,286047000.5,N
1709742415.9,286047008.9,Y
1709742435.7,286047010.7,P
1709742455.6,286047010.1,N
1709742475.4,286047008.2,N
1709742495.2,286047004.8,N
1709742515.1,286047005.0,N
1709742516.0,286047005.0,N
1709742535.8,286047004.5,N
1709742555.7,286047010.8,Y
1709742575.5,286046998.7,P
1709742595.3,286046993.5,N
1709742615.2,286046997.5,N
1709742635.9,286046999.7,N
1709742655.7,286047003.7,N
1709742675.6,286047010.8,N
1709742695.4,286047008.8,N
1709742715.2,286047006.5,N
1709742735.1,286047007.3,N
1709742736.0,286047007.3,N
1709742755.8,286047005.1,N
1709742775.7,286047009.2,N
1709742795.5,286047010.2,N
1709742815.3,286047013.3,N
1709742835.2,286047010.7,N
1709742855.0,286047009.2,N
1709742855.9,286047009.2,N
1709742875.7,286047009.9,N
1709742895.6,286047010.8,N
1709742915.4,286047011.9,N
1709742935.3,286047016.4,Y
1709742955.1,286047013.6,P
1709742975.8,286047013.5,P
1709742995.7,286047019.8,P
1709743015.5,286047026.4,Y
1709743035.4,286047018.5,P
1709743055.2,286047011.0,P
1709743075.0,286047012.4,P
1709743075.9,286047012.4,Y
1709743095.8,286046997.7,P
1709743115.6,286046990.5,N
1709743135.4,286046989.6,N
1709743155.3,286046985.7,N
1709743175.1,286046986.9,N
1709743195.9,286046993.6,N
1709743215.7,286046995.0,N
1709743235.5,286046999.4,N
1709743255.4,286047001.0,N
1709743275.2,286046998.8,N
1709743295.0,286046994.0,N
1709743295.9,286046994.0,N
1709743315.8,286046991.5,N
1709743335.6,286046996.2,N
1709743355.5,286047003.8,N
1709743375.3,286047003.5,N
1709743395.1,286047001.3,N
1709743415.9,286046998.2,N
1709743435.7,286046999.0,N
1709743455.5,286046998.0,N
1709743475.4,286046998.6,N
1709743495.2,286046996.3,N
1709743515.1,286046993.8,N
1709743516.0,286046993.8,N
1709743535.8,286047009.7,N
1709743555.6,286047013.0,N
1709743575.5,286047021.0,Y
1709743595.3,286047022.9,P
1709743615.1,286047023.5,N
1709743635.9,286047022.8,N
1709743655.7,286047025.4,N
1709743675.6,286047026.6,N
1709743695.4,286047025.4,N
1709743715.2,286047024.1,N
1709743735.1,286047026.2,N
1709743736.0,286047026.2,Y
1709743755.8,286047004.0,P
1709743775.6,286046997.6,N
1709743795.5,286046993.4,N
1709743815.3,286046994.9,N
1709743835.2,286046997.4,N
1709743855.9,286046997.4,N
1709743875.7,286046995.0,N
1709743895.6,286046996.8,N
1709743915.4,286046995.3,N
1709743935.2,286046999.1,N
1709743955.1,286047001.1,N
1709743956.0,286047001.1,N
1709743975.8,286047001.0,N
1709743995.7,286047000.0,N
1709744015.5,286046998.6,N
1709744035.3,286047002.0,N
1709744055.2,286047001.9,N
1709744075.0,286047001.8,N
1709744075.9,286047001.8,N
1709744095.8,286047007.0,N
1709744115.6,286047006.4,N
1709744135.4,286047007.4,N
1709744155.3,286047007.3,N
1709744175.1,286047008.4,N
1709744195.8,286047008.8,N
1709744215.7,286047008.8,N
1709744235.5,286047009.1,N
1709744255.4,286047006.6,N
1709744275.2,286047010.3,N
1709744295.0,286047006.9,N
1709744296.0,286047006.9,N
1709744315.8,286047005.3,N
1709744335.7,286047002.0,N
1709744355.5,286046999.7,N
1709744375.3,286047002.6,N
1709744395.2,286046996.9,N
